Location: ??
(35.4824°N, 139.4679°E)
Time: 20:47:53
(UTC+00:00)

DELTA 2 R/B (1) - Pass Details

Date: 29 October 2020
Orbit: 790 x 803 km, 39.6° (Epoch: 24 November)

Event Time Altitude Azimuth Distance (km) Brightness Sun altitude
Exits shadow 19:02:39 43° 204° (SSW) 1,101 4.1 -24.8°
Drops below altitude 10° 19:07:40 10° 141° (SE) 2,363 6.5 -23.8°
Sets 19:10:15 0° 134° (SE) 3,292 7.5 -23.2°
